TimePDT,TemperatureF,Dew PointF,Humidity,Sea Level PressureIn,VisibilityMPH,Wind Direction,Wind SpeedMPH,Gust SpeedMPH,PrecipitationIn,Events,Conditions,WindDirDegrees,DateUTC
12:53 AM,46.0,37.9,73,29.92,10.0,South,5.8,-,N/A,,Clear,170,2013-10-10 07:53:00
1:53 AM,46.9,39.0,74,29.91,10.0,SSE,8.1,-,N/A,,Clear,160,2013-10-10 08:53:00
2:53 AM,46.9,39.0,74,29.89,10.0,SSE,6.9,-,N/A,,Clear,160,2013-10-10 09:53:00
3:53 AM,45.0,39.0,80,29.89,10.0,Calm,Calm,-,N/A,,Clear,0,2013-10-10 10:53:00
4:53 AM,46.9,39.0,74,29.89,10.0,South,5.8,-,N/A,,Scattered Clouds,180,2013-10-10 11:53:00
5:53 AM,48.0,37.9,68,29.88,10.0,South,4.6,-,N/A,,Overcast,170,2013-10-10 12:53:00
6:53 AM,46.9,37.9,71,29.88,10.0,Calm,Calm,-,N/A,,Overcast,0,2013-10-10 13:53:00
7:53 AM,46.0,37.9,73,29.91,10.0,Calm,Calm,-,N/A,,Overcast,0,2013-10-10 14:53:00
8:53 AM,50.0,37.9,63,29.91,10.0,SW,10.4,-,N/A,,Scattered Clouds,230,2013-10-10 15:53:00
9:53 AM,53.1,39.0,59,29.91,10.0,WSW,10.4,-,N/A,,Clear,240,2013-10-10 16:53:00
10:53 AM,55.9,39.9,55,29.91,9.0,West,9.2,-,N/A,,Clear,270,2013-10-10 17:53:00
11:53 AM,60.1,37.9,44,29.91,10.0,West,11.5,-,N/A,,Clear,280,2013-10-10 18:53:00
12:53 PM,62.1,36.0,38,29.90,5.0,WSW,8.1,-,N/A,,Haze,240,2013-10-10 19:53:00
1:53 PM,63.0,35.1,35,29.89,10.0,West,11.5,-,N/A,,Clear,270,2013-10-10 20:53:00
2:53 PM,64.0,35.1,34,29.89,10.0,WSW,5.8,-,N/A,,Clear,240,2013-10-10 21:53:00
3:53 PM,64.9,35.1,33,29.89,10.0,WNW,6.9,-,N/A,,Partly Cloudy,300,2013-10-10 22:53:00
4:53 PM,64.0,35.1,34,29.90,10.0,Calm,Calm,-,N/A,,Clear,0,2013-10-10 23:53:00
5:53 PM,61.0,35.1,38,29.89,10.0,Calm,Calm,-,N/A,,Clear,0,2013-10-11 00:53:00
6:53 PM,57.0,37.9,49,29.92,10.0,Variable,3.5,-,N/A,,Overcast,0,2013-10-11 01:53:00
7:53 PM,57.0,41.0,55,29.94,10.0,Calm,Calm,-,N/A,,Overcast,0,2013-10-11 02:53:00
8:53 PM,55.9,42.1,60,29.96,10.0,SSW,9.2,-,N/A,,Overcast,210,2013-10-11 03:53:00
9:53 PM,53.1,42.1,66,29.98,10.0,SSW,8.1,-,N/A,,Mostly Cloudy,210,2013-10-11 04:53:00
10:53 PM,53.1,43.0,69,29.99,10.0,SSW,8.1,-,N/A,,Overcast,200,2013-10-11 05:53:00
11:53 PM,53.1,43.0,69,30.00,10.0,SW,12.7,-,N/A,,Overcast,230,2013-10-11 06:53:00